Regional Weather Roundup
Issued by NWS Charleston, WV

Home | Current Version | Previous Version | Text Only | Print | Product List | Glossary Off
Versions: 1 2 3 4 5 6 7 8 9 10 11 12 13 14 15 16 17 18 19 20 21 22 23 24 25 26 27 28 29 30 31 32 33 34 35 36 37 38 39 40 41 42 43 44 45 46 47 48 49 50

000
ASUS41 KRLX 050010
RWRRLX
West Virginia Regional Weather Roundup
National Weather Service Charleston WV
700 PM EST WED MAR 04 2015

Note: "fair" indicates few or no clouds below 12,000 feet with no
significant weather and/or obstructions to visibility.

WVZ003-050100-
Northern Panhandle of West Virginia

CITY           SKY/WX    TMP DP  RH WIND       PRES   REMARKS
WHEELING       SNOW      32  31  96 W5        29.97R VSB 1/2
$$

WVZ009-050100-
Northwest West Virginia

CITY           SKY/WX    TMP DP  RH WIND       PRES   REMARKS
PARKERSBURG    LGT SNOW  32  31  96 NW6       30.04R VSB 3/4
$$

WVZ006-050100-
Western West Virginia

CITY           SKY/WX    TMP DP  RH WIND       PRES   REMARKS
HUNTINGTON     RAIN      35  34  96 N7        30.02R FOG
$$

WVZ015-050100-
West Central West Virginia

CITY           SKY/WX    TMP DP  RH WIND       PRES   REMARKS
CHARLESTON     RAIN      39  36  89 VRB5      29.98R FOG
$$

WVZ022-031-050100-
North Central West Virginia

CITY           SKY/WX    TMP DP  RH WIND       PRES   REMARKS
CLARKSBURG     LGT RAIN  37  36  96 W6        29.97R
MORGANTOWN     MIX PCPN  36  31  82 N5        29.96R
$$

WVZ025-035-042-045-050100-
Southern West Virginia

CITY           SKY/WX    TMP DP  RH WIND       PRES   REMARKS
BECKLEY        RAIN      42  42 100 N13       29.91R FOG
LOGAN          LGT RAIN  39  39 100 N5        29.91F
BLUEFIELD      FOG       47  44  90 CALM      29.88S VSB 1/4
LEWISBURG      RAIN      42  41  95 CALM      29.89R VSB 1
$$

WVZ047-050100-
Northern Mountains of West Virginia

CITY           SKY/WX    TMP DP  RH WIND       PRES   REMARKS
ELKINS         RAIN      39  50 100 N8        29.94R
$$

WVZ052-050100-
Eastern Panhandle of West Virginia

CITY           SKY/WX    TMP DP  RH WIND       PRES   REMARKS
MARTINSBURG    LGT RAIN  46  42  86 N7        29.90R FOG
PETERSBURG     LGT RAIN  48  48 100 CALM        N/A
$$



USA.gov is the U.S. government's official web portal to all federal, state and local government web resources and services.